• In Germany
  • List of Countries
  • For 7 days
  • Water Temperature
  • Satellite Maps
  • Weather Map
  • Weather Widgets
  • user-avatar
    Login

    Hourly Weather Podgornoe

    Today, 21 September, Friday

    Time Temperature Precipitation Wind Pressure Humidity
    00:00 +1°C° 0 mm 2 mps 700 mmHg 92%
    01:00 -1°C° 0 mm 2 mps 699 mmHg 93%
    02:00 -1°C° 0 mm 2 mps 699 mmHg 92%
    03:00 -1°C° 0 mm 2 mps 699 mmHg 90%
    04:00 -1°C° 0 mm 2 mps 699 mmHg 89%
    05:00 +1°C° 0 mm 2 mps 699 mmHg 85%
    06:00 +2°C° 0 mm 2 mps 699 mmHg 81%
    07:00 +2°C° 0 mm 2 mps 700 mmHg 77%
    08:00 +6°C° 0 mm 1 mps 699 mmHg 68%
    09:00 +8°C° 0 mm 1 mps 699 mmHg 59%
    10:00 +11°C° 0 mm 1 mps 699 mmHg 50%
    11:00 +11°C° 0 mm 1 mps 699 mmHg 49%
    12:00 +12°C° 0 mm 2 mps 698 mmHg 49%
    13:00 +13°C° 0 mm 2 mps 698 mmHg 48%
    14:00 +13°C° 0 mm 2 mps 698 mmHg 49%
    15:00 +13°C° 0 mm 2 mps 698 mmHg 50%
    16:00 +12°C° 0 mm 2 mps 697 mmHg 51%
    17:00 +9°C° 0 mm 2 mps 698 mmHg 61%
    18:00 +6°C° 0 mm 2 mps 698 mmHg 72%
    19:00 +5°C° 0 mm 1 mps 698 mmHg 83%
    20:00 +4°C° 0 mm 1 mps 698 mmHg 85%
    21:00 +4°C° 0 mm 1 mps 699 mmHg 87%
    22:00 +4°C° 0 mm 1 mps 699 mmHg 88%
    23:00 +3°C° 0 mm 1 mps 700 mmHg 88%

    Tomorrow, 22 September, Saturday

    Time Temperature Precipitation Wind Pressure Humidity
    00:00 +3°C° 0 mm 1 mps 700 mmHg 88%
    01:00 +3°C° 0 mm 1 mps 700 mmHg 88%
    02:00 +3°C° 0 mm 1 mps 700 mmHg 86%
    03:00 +3°C° 0 mm 1 mps 700 mmHg 85%
    04:00 +3°C° 0 mm 1 mps 700 mmHg 83%
    05:00 +4°C° 0 mm 1 mps 700 mmHg 79%
    06:00 +5°C° 0 mm 1 mps 701 mmHg 74%
    07:00 +5°C° 0 mm 1 mps 701 mmHg 69%
    08:00 +8°C° 0 mm 1 mps 701 mmHg 62%
    09:00 +11°C° 0 mm 1 mps 701 mmHg 54%
    10:00 +14°C° 0 mm 1 mps 700 mmHg 46%
    11:00 +15°C° 0 mm 1 mps 700 mmHg 45%
    12:00 +16°C° 0 mm 1 mps 700 mmHg 43%
    13:00 +18°C° 0 mm 1 mps 699 mmHg 41%
    14:00 +18°C° 0 mm 1 mps 699 mmHg 42%
    15:00 +16°C° 0 mm 1 mps 699 mmHg 42%
    16:00 +16°C° 0 mm 1 mps 698 mmHg 42%
    17:00 +13°C° 0 mm 1 mps 698 mmHg 50%
    18:00 +10°C° 0 mm 1 mps 698 mmHg 58%
    19:00 +7°C° 0 mm 1 mps 697 mmHg 66%
    20:00 +7°C° 0 mm 1 mps 698 mmHg 66%
    21:00 +7°C° 0 mm 1 mps 698 mmHg 65%
    22:00 +5°C° 0 mm 2 mps 698 mmHg 65%
    23:00 +5°C° 0 mm 2 mps 698 mmHg 64%

    Day after tomorrow, 23 September, Sunday

    Time Temperature Precipitation Wind Pressure Humidity
    00:00 +5°C° 0 mm 2 mps 698 mmHg 62%
    01:00 +5°C° 0 mm 2 mps 698 mmHg 61%
    02:00 +5°C° 0 mm 2 mps 698 mmHg 60%
    03:00 +5°C° 0 mm 2 mps 698 mmHg 59%
    04:00 +5°C° 0 mm 2 mps 697 mmHg 59%
    05:00 +6°C° 0 mm 2 mps 697 mmHg 57%
    06:00 +6°C° 0 mm 2 mps 697 mmHg 55%
    07:00 +7°C° 0 mm 2 mps 697 mmHg 54%
    08:00 +10°C° 0 mm 2 mps 697 mmHg 50%
    09:00 +13°C° 0 mm 1 mps 697 mmHg 46%
    10:00 +16°C° 0 mm 1 mps 697 mmHg 42%
    11:00 +18°C° 0 mm 1 mps 697 mmHg 41%
    12:00 +19°C° 0 mm 1 mps 696 mmHg 40%
    13:00 +20°C° 0 mm 1 mps 696 mmHg 39%
    14:00 +19°C° 0 mm 1 mps 695 mmHg 42%
    15:00 +19°C° 0 mm 1 mps 695 mmHg 45%
    16:00 +18°C° 0 mm 1 mps 695 mmHg 48%
    17:00 +15°C° 0 mm 1 mps 694 mmHg 53%
    18:00 +12°C° 0 mm 1 mps 694 mmHg 59%
    19:00 +10°C° 0 mm 1 mps 694 mmHg 65%
    20:00 +9°C° 0 mm 1 mps 694 mmHg 65%
    21:00 +9°C° 0 mm 1 mps 694 mmHg 65%
    22:00 +8°C° 0 mm 2 mps 694 mmHg 65%
    23:00 +8°C° 0 mm 2 mps 694 mmHg 64%

    24 September, Monday

    Time Temperature Precipitation Wind Pressure Humidity
    00:00 +8°C° 0 mm 2 mps 694 mmHg 63%
    01:00 +8°C° 0 mm 2 mps 694 mmHg 62%
    02:00 +8°C° 0 mm 2 mps 694 mmHg 63%
    03:00 +8°C° 0 mm 2 mps 694 mmHg 63%
    04:00 +8°C° 0 mm 2 mps 694 mmHg 63%
    05:00 +8°C° 0 mm 2 mps 694 mmHg 62%
    06:00 +10°C° 0 mm 1 mps 694 mmHg 62%
    07:00 +10°C° 0 mm 1 mps 694 mmHg 61%
    08:00 +13°C° 0 mm 1 mps 694 mmHg 56%
    09:00 +15°C° 0 mm 1 mps 694 mmHg 51%
    10:00 +19°C° 0 mm 1 mps 694 mmHg 46%
    11:00 +19°C° 0 mm 1 mps 694 mmHg 46%
    12:00 +20°C° 0 mm 1 mps 694 mmHg 45%
    13:00 +20°C° 0 mm 1 mps 693 mmHg 44%
    14:00 +20°C° 0 mm 1 mps 693 mmHg 48%
    15:00 +19°C° 0 mm 1 mps 693 mmHg 51%
    16:00 +19°C° 0 mm 1 mps 692 mmHg 54%
    17:00 +15°C° 0 mm 1 mps 692 mmHg 62%
    18:00 +13°C° 0 mm 1 mps 692 mmHg 71%
    19:00 +11°C° 0 mm 1 mps 692 mmHg 79%
    20:00 +11°C° 0 mm 1 mps 692 mmHg 78%
    21:00 +10°C° 0 mm 1 mps 692 mmHg 78%
    22:00 +10°C° 0 mm 1 mps 692 mmHg 78%
    23:00 +10°C° 0 mm 1 mps 691 mmHg 78%

    25 September, Tuesday

    Time Temperature Precipitation Wind Pressure Humidity
    00:00 +10°C° 0 mm 1 mps 691 mmHg 78%
    01:00 +10°C° 0 mm 1 mps 691 mmHg 78%
    02:00 +10°C° 0.1 mm 1 mps 691 mmHg 78%
    03:00 +10°C° 0.1 mm 1 mps 690 mmHg 78%
    04:00 +11°C° 0.1 mm 1 mps 690 mmHg 79%
    05:00 +11°C° 0.6 mm 1 mps 690 mmHg 80%
    06:00 +11°C° 0.6 mm 1 mps 690 mmHg 81%
    07:00 +12°C° 0.6 mm 1 mps 690 mmHg 82%
    08:00 +12°C° 0.9 mm 1 mps 690 mmHg 82%
    09:00 +13°C° 0.9 mm 1 mps 690 mmHg 82%
    10:00 +14°C° 0.9 mm 1 mps 690 mmHg 82%
    11:00 +13°C° 1.5 mm 1 mps 689 mmHg 85%
    12:00 +13°C° 1.5 mm 1 mps 689 mmHg 88%
    13:00 +13°C° 1.5 mm 1 mps 688 mmHg 91%
    14:00 +12°C° 1.4 mm 1 mps 688 mmHg 92%
    15:00 +12°C° 1.4 mm 1 mps 689 mmHg 94%
    16:00 +12°C° 1.4 mm 1 mps 689 mmHg 96%
    17:00 +11°C° 0.8 mm 1 mps 689 mmHg 96%
    18:00 +11°C° 0.8 mm 1 mps 689 mmHg 97%
    19:00 +11°C° 0.8 mm 1 mps 689 mmHg 98%
    20:00 +10°C° 0.4 mm 1 mps 690 mmHg 98%
    21:00 +10°C° 0.4 mm 1 mps 690 mmHg 97%
    22:00 +10°C° 0.4 mm 1 mps 690 mmHg 97%
    23:00 +9°C° 0.2 mm 1 mps 690 mmHg 97%

    26 September, Wednesday

    Time Temperature Precipitation Wind Pressure Humidity
    00:00 +9°C° 0.2 mm 1 mps 690 mmHg 96%
    01:00 +8°C° 0.2 mm 1 mps 690 mmHg 96%
    02:00 +8°C° 0 mm 1 mps 690 mmHg 95%
    03:00 +7°C° 0 mm 1 mps 690 mmHg 93%
    04:00 +7°C° 0 mm 1 mps 690 mmHg 92%
    05:00 +7°C° 0 mm 1 mps 690 mmHg 89%
    06:00 +7°C° 0 mm 1 mps 691 mmHg 87%
    07:00 +8°C° 0 mm 1 mps 691 mmHg 85%
    08:00 +9°C° 0 mm 1 mps 691 mmHg 79%
    09:00 +11°C° 0 mm 1 mps 691 mmHg 73%
    10:00 +12°C° 0 mm 1 mps 691 mmHg 67%
    11:00 +12°C° 0.3 mm 1 mps 690 mmHg 67%
    12:00 +12°C° 0.3 mm 2 mps 690 mmHg 68%
    13:00 +12°C° 0.3 mm 2 mps 690 mmHg 69%
    14:00 +10°C° 1.7 mm 2 mps 690 mmHg 76%
    15:00 +9°C° 1.7 mm 2 mps 690 mmHg 83%
    16:00 +7°C° 1.7 mm 2 mps 691 mmHg 90%
    17:00 +7°C° 1 mm 2 mps 691 mmHg 92%
    18:00 +6°C° 1 mm 2 mps 692 mmHg 93%
    19:00 +6°C° 1 mm 1 mps 693 mmHg 94%
    20:00 +6°C° 0.1 mm 1 mps 693 mmHg 94%
    21:00 +5°C° 0.1 mm 1 mps 694 mmHg 95%
    22:00 +5°C° 0.1 mm 1 mps 694 mmHg 95%
    23:00 +4°C° 0 mm 1 mps 694 mmHg 95%
    Show more